Regional Weather Roundup
Issued by NWS

Home | Current Version | Previous Version | Text Only | Print | Product List | Glossary On
Versions: 1 2 3 4 5 6 7 8 9 10 11 12 13 14 15 16 17 18 19 20 21 22 23 24 25 26 27 28 29 30 31 32 33 34 35 36 37 38 39 40 41 42 43 44 45 46 47 48 49 50
000
ASUS42 KTBW 271217
RWRFL
FLORIDA REGIONAL WEATHER ROUNDUP
NATIONAL WEATHER SERVICE TAMPA BAY RUSKIN FL
800 AM EDT WED MAY 27 2015

NOTE: "FAIR" INDICATES FEW OR NO CLOUDS BELOW 12,000 FEET WITH NO
SIGNIFICANT WEATHER AND/OR OBSTRUCTIONS TO VISIBILITY.


FLZ001>010-012>015-112-114-115-271300-
PANHANDLE FLORIDA

CITY           SKY/WX    TMP DP  RH WIND       PRES   REMARKS
PENSACOLA      LGT RAIN  73  72  96 E7        30.13F
PENSACOLA NAS  PTSUNNY   77  74  90 SE10      30.12F
MILTON NAS     CLOUDY    69  67  93 E3        30.15
CRESTVIEW      PTSUNNY   70  68  93 E3        30.18S
DUKE FIELD     FAIR      69  67  91 E3        30.16S
VALPARAISO     MOSUNNY   71  67  88 E3        30.16S
MARY ESTHER    PTSUNNY   72  68  87 CALM      30.14F
TRI COUNTY     FAIR      68  67  96 CALM      30.20R
PANAMA CITY    FAIR      70  68  93 N3        30.18R
TYNDALL AFB    CLOUDY    72  68  88 NE6       30.17R
APALACHICOLA   CLOUDY    76  70  82 NE5       30.17R

STATION/POSITION SKY/WX   TEMP    WIND        PRES    WAVE   SWELL
                          AIR SEA DIR/SP/G            HT/PER HT/PER
                          (F)     (DEG/KT/KT) (MB)    (FT/S) (FT/S)
30.1N   87.6W              79 80  140/ 10/ 12 1019.6F   3/ 7   3/ 7
29.2N   88.2W              79 78  110/  8/ 10 1020.3F   3/ 8   3/ 8
28.8N   86.0W              80 81  150/  8/ 10 1020.9R   4/ 6   3/ 6
PANAMA CITY BEAC           73 80   60/  6/  7 1020.9R
CAPE SAN BLAS    NOT AVBL
TOWER C                    78     140/ 12/ 12 1021.3R
28.5N   84.5W              80 80  140/ 16/ 17 1020.4R   4/ 6

$$
FLZ011-016>038-118-127-128-134-139-239-271300-
NORTH FLORIDA

CITY           SKY/WX    TMP DP  RH WIND       PRES   REMARKS
MARIANNA       CLOUDY    69  69 100 NE5       30.19R
TALLAHASSEE    CLOUDY    73  69  87 E7        30.20R
PERRY          CLOUDY    72  71  96 CALM      30.21R
CROSS CITY       N/A     73  70  90 E3        30.19R
LAKE CITY      FAIR      72  72 100 CALM      30.20R
GAINESVILLE    PTSUNNY   75  69  81 CALM      30.20R
MAYPORT NAS    PTSUNNY   78  67  68 SE9       30.20R
JACKSONVILLE   PTSUNNY   73  70  90 CALM      30.21R
JAX NAS        PTSUNNY   80  68  66 SE6       30.21R
JAX CRAIG      MOSUNNY   77  67  71 CALM      30.21R
JAX CECIL      SUNNY     75  70  83 CALM      30.20R
FERNANDINA BEA FAIR      82  68  61 SE9       30.19R
ST AUGUSTINE   MOSUNNY   79  69  71 SE9       30.21R

STATION/POSITION SKY/WX   TEMP    WIND        PRES    WAVE   SWELL
                          AIR SEA DIR/SP/G            HT/PER HT/PER
                          (F)     (DEG/KT/KT) (MB)    (FT/S) (FT/S)
SHELL POINT                72      50/  2/  4   N/A
KEATON BEACH               72      90/  7/  8 1022.5R
CEDAR KEY                  77     130/ 12/ 14 1022.4R
FERNANDINA                 76 80  120/  3/  6 1021.3R
30.7N   81.3W                 79                N/A     3/ 5
MAYPORT                    76 79  130/  7/  9 1022.3R
31.4N   80.9W              77 77  140/ 12/ 14 1023.3R   3/ 7   2/ 7
ST AUGUSTINE               77 78  130/  9/ 10 1023.4R

$$
FLZ040-043>046-052-053-057-058-063-144-271300-
INTERIOR CENTRAL FLORIDA

CITY           SKY/WX    TMP DP  RH WIND       PRES   REMARKS
THE VILLAGES     N/A     75  72  88 NE3       30.09R
LEESBURG       PTSUNNY   76  70  82 NE5       30.20R
SANFORD        MOSUNNY   76  69  79 N5        30.18R
ORLANDO EXEC   MOSUNNY   76  67  73 CALM      30.18R
ORLANDO INTL   PTSUNNY   77  68  73 CALM      30.17R
KISSIMMEE      SUNNY     75  70  83 CALM      30.18R
WINTER HAVEN   MOSUNNY   76  69  79 E5        30.18R
BARTOW         MOSUNNY   72  72 100 NE5       30.17R
OKEECHOBEE     SUNNY     70  68  94 CALM      30.14S

$$
FLZ041-047-054-059-064-141-147-271300-
EAST CENTRAL FLORIDA

CITY           SKY/WX    TMP DP  RH WIND       PRES   REMARKS
ORMOND BEACH   MOSUNNY   75  66  73 CALM      30.19R
DAYTONA BEACH  PTSUNNY   77  68  73 CALM      30.19R
DELAND           N/A     72  68  88 NW3       30.20R
NEW SMYRNA BEA MOSUNNY   77  68  73 MISG      30.19R
JFK SPACE CTR  MOSUNNY   77  67  69 E6        30.15R
TITUSVILLE     MOSUNNY   77  70  78 E9        30.16R
CAPE CANAVERAL MOSUNNY   78  67  71 SE13G20   30.14R
PATRICK AFB    SUNNY     80  69  70 E23       30.13R
MELBOURNE      MOSUNNY   79  66  64 E17G24    30.13R
VERO BEACH     SUNNY     80  65  59 E16G28    30.14R
FT PIERCE      SUNNY     80  66  62 E18       30.13R
STUART         MOSUNNY   79  66  65 E14G21    30.14R

STATION/POSITION SKY/WX   TEMP    WIND        PRES    WAVE   SWELL
                          AIR SEA DIR/SP/G            HT/PER HT/PER
                          (F)     (DEG/KT/KT) (MB)    (FT/S) (FT/S)
28.5N   80.2W              79 80  100/ 17/ 19 1020.6R
28.9N   78.5W              77 81  100/ 14/ 17 1022.0R
TRIDENT PIER               78 82   90/ 11/ 14 1020.7R
28.4N   80.5W                 82                N/A     3/ 4
27.5N   80.2W                 81                N/A     4/ 5

$$
FLZ050-056-061-142-242-148-248-149-249-151-251-155-255-
160-260-271300-
WEST CENTRAL FLORIDA

CITY           SKY/WX    TMP DP  RH WIND       PRES   REMARKS
CRYSTAL RIVER  FAIR      72  72 100 CALM      30.19R
INVERNESS      FAIR      73  73 100 CALM      30.19R
BROOKSVILLE    MOSUNNY   74  70  87 NE5       30.19R
CLEARWATER     PTSUNNY   75  70  84 SE9       30.16R
TAMPA INTL     PTSUNNY   76  69  79 VRB5      30.17R
TAMPA EXEC     MOSUNNY   73  72  94 CALM      30.18  FOG
PLANT CITY     MOSUNNY   75  73  94 MISG      30.19R
MACDILL AFB    PTSUNNY   75  73  91 E6        30.16R
PETER O KNIGHT MOSUNNY   79  73  83 E3        30.17R
ST PETERSBURG  PTSUNNY   77  69  76 SE12      30.15R
SARASOTA       MOSUNNY   73  69  87 E7        30.14R
VENICE         FAIR      75  72  88 E7        30.16R

STATION/POSITION SKY/WX   TEMP    WIND        PRES    WAVE   SWELL
                          AIR SEA DIR/SP/G            HT/PER HT/PER
                          (F)     (DEG/KT/KT) (MB)    (FT/S) (FT/S)
CEDAR KEY                  77     130/ 12/ 14 1022.4R
28.5N   84.5W              80 80  140/ 16/ 17 1020.4R   4/ 6
27.3N   84.2W                 81                N/A     5/ 5
CLEARWATER BEACH           76 83  120/  7/ 10 1020.8R
MIDDLE TAMPA BAY           75     140/ 11/ 13 1020.6R
VENICE                     75 85   80/  8/  9 1020.4R

$$
FLZ066-069-070-075>078-162-262-165-265-271300-
SOUTHWEST FLORIDA AND KEYS

CITY           SKY/WX    TMP DP  RH WIND       PRES   REMARKS
PUNTA GORDA    SUNNY     73  70  90 E6        30.16R
FT MYERS       SUNNY     75  70  84 E7        30.12R
SOUTHWEST INTL SUNNY     74  69  85 E7        30.13R
NAPLES         SUNNY     75  70  84 E8        30.11S
MARCO ISLAND     N/A     73  66  78 NE8       30.12R
IMMOKALEE      SUNNY    N/A N/A N/A CALM      30.14R
MARATHON       SUNNY     82  68  62 E13G18    30.09R
KEY WEST NAS   MOSUNNY   81  68  64 E17       30.09R
KEY WEST INTL  SUNNY     81  68  64 E14G23    30.10R

STATION/POSITION SKY/WX   TEMP    WIND        PRES    WAVE   SWELL
                          AIR SEA DIR/SP/G            HT/PER HT/PER
                          (F)     (DEG/KT/KT) (MB)    (FT/S) (FT/S)
VENICE                     75 85   80/  8/  9 1020.4R
NAPLES                     73 84   70/  3/  5 1019.6R
26.0N   85.6W              81 82  110/ 12/ 16 1019.6R   3/ 6   2/ 6
DRY TORTUGAS               81     120/ 19/ 20 1018.1R
NW FL BAY                  81     110/ 15/ 18 1019.1
SAND KEY                   81      90/ 18/ 20 1018.9R
SOMBRERO KEY               81      90/ 19/ 21 1019.1R
LONG KEY                   80 82   80/ 17/ 18 1019.9R
MOLASSES REEF              80 82   90/ 18/ 20 1019.1R

$$
FLZ067-068-071>074-168-172>174-271300-
SOUTHEAST FLORIDA

CITY           SKY/WX    TMP DP  RH WIND       PRES   REMARKS
W PALM BEACH   MOSUNNY   81  66  60 E16       30.13R
FT LAUDER-EXEC MOSUNNY   80  69  69 E17       30.11R
FT LAUDERDALE  MOSUNNY   80  70  71 E17       30.11R
POMPANO BEACH  SUNNY     80  68  66 E15       30.11S
PEMBROKE PINES MOSUNNY   80  69  69 E12       30.12S
OPA LOCKA      SUNNY     80  68  66 E12       30.11S
MIAMI          MOSUNNY   81  68  64 E16       30.11R
WEST KENDALL   SUNNY     80  68  66 E15       30.10S
HOMESTEAD      SUNNY     79  69  69 E10       30.10R

STATION/POSITION SKY/WX   TEMP    WIND        PRES    WAVE   SWELL
                          AIR SEA DIR/SP/G            HT/PER HT/PER
                          (F)     (DEG/KT/KT) (MB)    (FT/S) (FT/S)
PORT EVERGLADES            80      80/ 12/ 16 1019.7R
VIRGINIA KEY               80 82   80/ 15/ 18 1018.8R
LAKE WORTH                 79 82  100/ 18/ 20 1019.3S
SETTLEMENT POINT           78     100/ 14/ 17 1021.2R

$$



USA.gov is the U.S. government's official web portal to all federal, state and local government web resources and services.